{"data":{"norad_id":64850,"intl_designator":"2025-152J","name":"STARLINK-34757","alt_names":[],"object_type":"PAYLOAD","status":"ACTIVE","operator":null,"country":"US","launch_date":"2025-07-19","launch_site_code":"AFWTR","launch_vehicle":null,"mission":null,"orbit_class":"UNKNOWN","rcs_meters":null,"size_class":null,"mass_kg":null,"dimensions":null,"purposes":["comms"],"wikipedia_slug":null,"has_3d_model":false,"image_url":null,"decayed_at":null,"tle_current":{"epoch":"2026-05-25T02:20:27.768768Z","epoch_age_seconds":77186,"freshness":"FRESH","line1":"1 64850U 25152J   26145.09754362  .00003774  00000+0  26542-3 0  9994","line2":"2 64850  97.4520   0.4270 0001654  81.6474 278.4941 15.05658874 46915","mean_motion":15.05658874,"eccentricity":0.0001654,"inclination_deg":97.452,"raan_deg":0.427,"arg_perigee_deg":81.6474,"mean_anomaly_deg":278.4941,"bstar":0.00026542,"rev_number":4691,"period_min":95.639193237339,"perigee_km":548.33810555509,"apogee_km":550.62976256008,"semimajor_km":6927.6209340576,"source":"CELESTRAK","updated_at":"2026-05-25T13:38:20.613376Z"}}}